,,PA_Meas_PMT16A,,PR_Meas_QMR101_102,,RH_Meas_QMH101,,SR_Meas_QMS101,,TA_Meas_QMH101,,GenWind,,GenWind,
time,status,PA,status,PR,status,RH,status,SR,status,TA,status,DirAvg,status,SpdAvg,
2013-05-08, 00:00:04,VALID,918.05,VALID,0,VALID,96.9317,VALID,0,VALID,20.4454,VALID,88,VALID,0,
2013-05-08, 00:01:04,VALID,918.06,VALID,0,VALID,96.9241,VALID,0,VALID,20.4259,VALID,88,VALID,0,
2013-05-08, 00:02:04,VALID,918.043,VALID,0,VALID,96.9241,VALID,0,VALID,20.3854,VALID,101,VALID,0,
2013-05-08, 00:03:04,VALID,918.016,VALID,0,VALID,96.9241,VALID,0,VALID,20.3869,VALID,99,VALID,0,
2013-05-08, 00:04:04,VALID,918.025,VALID,0,VALID,96.9165,VALID,0,VALID,20.3659,VALID,91,VALID,0,
2013-05-08, 00:05:04,VALID,918.025,VALID,0,VALID,96.9241,VALID,0,VALID,20.3869,VALID,103,VALID,0,
2013-05-08, 00:06:04,VALID,918.04,VALID,0,VALID,96.9165,VALID,0,VALID,20.3854,VALID,96,VALID,0,
2013-05-08, 00:07:04,VALID,918.039,VALID,0,VALID,96.9165,VALID,0,VALID,20.3869,VALID,96,VALID,0,
2013-05-08, 00:08:04,VALID,918.063,VALID,0,VALID,96.9241,VALID,0,VALID,20.3854,VALID,96,VALID,0,
2013-05-08, 00:09:04,VALID,918.06,VALID,0,VALID,96.9394,VALID,0,VALID,20.4049,VALID,96,VALID,0,
2013-05-08, 00:10:04,VALID,918.043,VALID,0,VALID,96.9165,VALID,0,VALID,20.4049,VALID,96,VALID,0,
2013-05-08, 00:11:04,VALID,918.035,VALID,0,VALID,96.9165,VALID,0,VALID,20.4049,VALID,96,VALID,0,
2013-05-08, 00:12:04,VALID,918.045,VALID,0,VALID,96.9317,VALID,0,VALID,20.4454,VALID,96,VALID,0,
2013-05-08, 00:13:04,VALID,918.029,VALID,0,VALID,96.9394,VALID,0,VALID,20.4454,VALID,96,VALID,0,
2013-05-08, 00:14:04,VALID,918.036,VALID,0,VALID,96.947,VALID,0,VALID,20.4439,VALID,96,VALID,0,
2013-05-08, 00:15:04,VALID,917.997,VALID,0,VALID,96.9241,VALID,0,VALID,20.4665,VALID,96,VALID,0,
2013-05-08, 00:16:04,VALID,917.952,VALID,0,VALID,96.9394,VALID,0,VALID,20.4454,VALID,96,VALID,0,
2013-05-08, 00:17:04,VALID,917.956,VALID,0,VALID,96.9241,VALID,0,VALID,20.4049,VALID,96,VALID,0,
2013-05-08, 00:18:04,VALID,917.933,VALID,0,VALID,96.9394,VALID,0,VALID,20.4259,VALID,96,VALID,0,
2013-05-08, 00:19:04,VALID,917.919,VALID,0,VALID,96.9394,VALID,0,VALID,20.4454,VALID,96,VALID,0,
2013-05-08, 00:20:04,VALID,917.918,VALID,0,VALID,96.947,VALID,0,VALID,20.4064,VALID,96,VALID,0,
2013-05-08, 00:21:04,VALID,917.899,VALID,0,VALID,96.9241,VALID,0,VALID,20.4259,VALID,96,VALID,0,
2013-05-08, 00:22:04,VALID,917.902,VALID,0,VALID,96.9394,VALID,0,VALID,20.3854,VALID,96,VALID,0,
2013-05-08, 00:23:04,VALID,917.877,VALID,0,VALID,96.9317,VALID,0,VALID,20.3869,VALID,111,VALID,0,
2013-05-08, 00:24:04,VALID,917.862,VALID,0,VALID,96.9165,VALID,0,VALID,20.3854,VALID,121,VALID,0,
2013-05-08, 00:25:04,VALID,917.851,VALID,0,VALID,96.9165,VALID,0,VALID,20.3869,VALID,120,VALID,0,
2013-05-08, 00:26:04,VALID,917.841,VALID,0,VALID,96.9241,VALID,0,VALID,20.3869,VALID,136,VALID,0,
2013-05-08, 00:27:04,VALID,917.829,VALID,0,VALID,96.9089,VALID,0,VALID,20.4064,VALID,136,VALID,0,
2013-05-08, 00:28:04,VALID,917.762,VALID,0,VALID,96.9165,VALID,0,VALID,20.4259,VALID,132,VALID,0,
2013-05-08, 00:29:04,VALID,917.79,VALID,0,VALID,96.9012,VALID,0,VALID,20.4259,VALID,132,VALID,0,
2013-05-08, 00:30:04,VALID,917.735,VALID,0,VALID,96.886,VALID,0,VALID,20.4049,VALID,132,VALID,0,
2013-05-08, 00:31:04,VALID,917.731,VALID,0,VALID,96.886,VALID,0,VALID,20.4049,VALID,132,VALID,0,
2013-05-08, 00:32:04,VALID,917.696,VALID,0,VALID,96.8784,VALID,0,VALID,20.4244,VALID,132,VALID,0,
2013-05-08, 00:33:04,VALID,917.687,VALID,0,VALID,96.8479,VALID,0,VALID,20.4244,VALID,132,VALID,0,
2013-05-08, 00:34:04,VALID,917.683,VALID,0,VALID,96.8479,VALID,0,VALID,20.4244,VALID,141,VALID,0,
2013-05-08, 00:35:04,VALID,917.66,VALID,0,VALID,96.8326,VALID,0,VALID,20.4064,VALID,141,VALID,0,
2013-05-08, 00:36:04,VALID,917.669,VALID,0,VALID,96.8326,VALID,0,VALID,20.4049,VALID,141,VALID,0,
2013-05-08, 00:37:04,VALID,917.664,VALID,0,VALID,96.8326,VALID,0,VALID,20.4259,VALID,141,VALID,0,
2013-05-08, 00:38:04,VALID,917.638,VALID,0,VALID,96.8479,VALID,0,VALID,20.3854,VALID,131,VALID,0,
2013-05-08, 00:39:04,VALID,917.672,VALID,0,VALID,96.8326,VALID,0,VALID,20.3854,VALID,126,VALID,0,
2013-05-08, 00:40:04,VALID,917.664,VALID,0,VALID,96.8174,VALID,0,VALID,20.3464,VALID,126,VALID,0,
2013-05-08, 00:41:04,VALID,917.659,VALID,0,VALID,96.8326,VALID,0,VALID,20.3674,VALID,127,VALID,0,
2013-05-08, 00:42:04,VALID,917.634,VALID,0,VALID,96.8326,VALID,0,VALID,20.3269,VALID,119,VALID,0,
2013-05-08, 00:43:04,VALID,917.666,VALID,0,VALID,96.825,VALID,0,VALID,20.3074,VALID,119,VALID,0,
2013-05-08, 00:44:04,VALID,917.639,VALID,0,VALID,96.825,VALID,0,VALID,20.2879,VALID,119,VALID,0,
2013-05-08, 00:45:04,VALID,917.655,VALID,0,VALID,96.825,VALID,0,VALID,20.2684,VALID,119,VALID,0,
2013-05-08, 00:46:04,VALID,917.628,VALID,0,VALID,96.8326,VALID,0,VALID,20.2489,VALID,119,VALID,0,
2013-05-08, 00:47:04,VALID,917.638,VALID,0,VALID,96.8174,VALID,0,VALID,20.2293,VALID,119,VALID,0,
2013-05-08, 00:48:04,VALID,917.628,VALID,0,VALID,96.8326,VALID,0,VALID,20.2293,VALID,119,VALID,0,
2013-05-08, 00:49:04,VALID,917.624,VALID,0,VALID,96.825,VALID,0,VALID,20.2309,VALID,119,VALID,0,
2013-05-08, 00:50:04,VALID,917.618,VALID,0,VALID,96.8326,VALID,0,VALID,20.1903,VALID,119,VALID,0,
2013-05-08, 00:51:04,VALID,917.616,VALID,0,VALID,96.8174,VALID,0,VALID,20.1724,VALID,119,VALID,0,
2013-05-08, 00:52:04,VALID,917.62,VALID,0,VALID,96.8174,VALID,0,VALID,20.1724,VALID,119,VALID,0,
2013-05-08, 00:53:04,VALID,917.559,VALID,0,VALID,96.8098,VALID,0,VALID,20.1513,VALID,119,VALID,0,
2013-05-08, 00:54:04,VALID,917.567,VALID,0,VALID,96.8326,VALID,0,VALID,20.1513,VALID,119,VALID,0,
2013-05-08, 00:55:04,VALID,917.58,VALID,0,VALID,96.8326,VALID,0,VALID,20.1513,VALID,119,VALID,0,
2013-05-08, 00:56:04,VALID,917.559,VALID,0,VALID,96.8403,VALID,0,VALID,20.1513,VALID,119,VALID,0,
2013-05-08, 00:57:04,VALID,917.547,VALID,0,VALID,96.8403,VALID,0,VALID,20.1513,VALID,119,VALID,0,
2013-05-08, 00:58:04,VALID,917.553,VALID,0,VALID,96.8555,VALID,0,VALID,20.1919,VALID,119,VALID,0,
2013-05-08, 00:59:04,VALID,917.511,VALID,0,VALID,96.8555,VALID,0,VALID,20.1724,VALID,119,VALID,0,
2013-05-08, 01:00:04,VALID,917.512,VALID,0,VALID,96.8631,VALID,0,VALID,20.1724,VALID,119,VALID,0,
2013-05-08, 01:01:04,VALID,917.495,VALID,0,VALID,96.8555,VALID,0,VALID,20.1708,VALID,119,VALID,0,
2013-05-08, 01:02:04,VALID,917.53,VALID,0,VALID,96.8631,VALID,0,VALID,20.1919,VALID,119,VALID,0,
2013-05-08, 01:03:04,VALID,917.535,VALID,0,VALID,96.8707,VALID,0,VALID,20.2309,VALID,119,VALID,0,
2013-05-08, 01:04:04,VALID,917.528,VALID,0,VALID,96.8784,VALID,0,VALID,20.2309,VALID,119,VALID,0,
2013-05-08, 01:05:04,VALID,917.532,VALID,0,VALID,96.8936,VALID,0,VALID,20.2309,VALID,119,VALID,0,
2013-05-08, 01:06:04,VALID,917.534,VALID,0,VALID,96.886,VALID,0,VALID,20.2098,VALID,119,VALID,0,
2013-05-08, 01:07:04,VALID,917.538,VALID,0,VALID,96.8784,VALID,0,VALID,20.2098,VALID,119,VALID,0,
2013-05-08, 01:08:04,VALID,917.539,VALID,0,VALID,96.8707,VALID,0,VALID,20.1903,VALID,119,VALID,0,
2013-05-08, 01:09:04,VALID,917.526,VALID,0,VALID,96.8631,VALID,0,VALID,20.1903,VALID,119,VALID,0,
2013-05-08, 01:10:04,VALID,917.527,VALID,0,VALID,96.8479,VALID,0,VALID,20.1903,VALID,119,VALID,0,
2013-05-08, 01:11:04,VALID,917.553,VALID,0,VALID,96.8326,VALID,0,VALID,20.2114,VALID,119,VALID,0,
2013-05-08, 01:12:04,VALID,917.539,VALID,0,VALID,96.825,VALID,0,VALID,20.2114,VALID,119,VALID,0,
2013-05-08, 01:13:04,VALID,917.516,VALID,0,VALID,96.825,VALID,0,VALID,20.1919,VALID,119,VALID,0,
2013-05-08, 01:14:04,VALID,917.539,VALID,0,VALID,96.825,VALID,0.107441,VALID,20.1708,VALID,119,VALID,0,
2013-05-08, 01:15:04,VALID,917.515,VALID,0,VALID,96.8098,VALID,0.107441,VALID,20.1498,VALID,119,VALID,0,
2013-05-08, 01:16:04,VALID,917.508,VALID,0,VALID,96.7945,VALID,0,VALID,20.1708,VALID,120,VALID,0,
2013-05-08, 01:17:04,VALID,917.52,VALID,0,VALID,96.8021,VALID,0.107441,VALID,20.1303,VALID,119,VALID,0,
2013-05-08, 01:18:04,VALID,917.508,VALID,0,VALID,96.8021,VALID,0,VALID,20.1303,VALID,119,VALID,0,
2013-05-08, 01:19:04,VALID,917.48,VALID,0,VALID,96.7793,VALID,0,VALID,20.1708,VALID,119,VALID,0,
2013-05-08, 01:20:04,VALID,917.465,VALID,0,VALID,96.7793,VALID,0,VALID,20.1108,VALID,119,VALID,0,
2013-05-08, 01:21:04,VALID,917.451,VALID,0,VALID,96.7488,VALID,0,VALID,20.1513,VALID,119,VALID,0,
2013-05-08, 01:22:04,VALID,917.412,VALID,0,VALID,96.7335,VALID,0,VALID,20.1513,VALID,119,VALID,0,
2013-05-08, 01:23:04,VALID,917.387,VALID,0,VALID,96.7411,VALID,0.107441,VALID,20.1303,VALID,119,VALID,0,
2013-05-08, 01:24:04,VALID,917.374,VALID,0,VALID,96.7411,VALID,0.107441,VALID,20.1708,VALID,119,VALID,0,
2013-05-08, 01:25:04,VALID,917.361,VALID,0,VALID,96.7564,VALID,0,VALID,20.1693,VALID,119,VALID,0,
2013-05-08, 01:26:04,VALID,917.33,VALID,0,VALID,96.7716,VALID,0,VALID,20.1693,VALID,119,VALID,0,
2013-05-08, 01:27:04,VALID,917.279,VALID,0,VALID,96.7488,VALID,0.107441,VALID,20.1708,VALID,119,VALID,0,
2013-05-08, 01:28:04,VALID,917.269,VALID,0,VALID,96.7259,VALID,0,VALID,20.1303,VALID,120,VALID,0,
2013-05-08, 01:29:04,VALID,917.271,VALID,0,VALID,96.7183,VALID,0,VALID,20.1139,VALID,119,VALID,0,
2013-05-08, 01:30:04,VALID,917.258,VALID,0,VALID,96.7107,VALID,0,VALID,20.1139,VALID,119,VALID,0,
2013-05-08, 01:31:04,VALID,917.256,VALID,0,VALID,96.703,VALID,0,VALID,20.1139,VALID,119,VALID,0,
2013-05-08, 01:32:04,VALID,917.244,VALID,0,VALID,96.6878,VALID,0,VALID,20.0538,VALID,119,VALID,0,
2013-05-08, 01:33:04,VALID,917.223,VALID,0,VALID,96.7183,VALID,0,VALID,20.0553,VALID,119,VALID,0,
2013-05-08, 01:34:04,VALID,917.183,VALID,0,VALID,96.7107,VALID,0,VALID,20.0553,VALID,119,VALID,0,
2013-05-08, 01:35:04,VALID,917.154,VALID,0,VALID,96.7259,VALID,0,VALID,20.0358,VALID,119,VALID,0,
2013-05-08, 01:36:04,VALID,917.119,VALID,0,VALID,96.7411,VALID,0,VALID,20.0358,VALID,119,VALID,0,
2013-05-08, 01:37:04,VALID,917.126,VALID,0,VALID,96.7564,VALID,0,VALID,20.0163,VALID,119,VALID,0,
2013-05-08, 01:38:04,VALID,917.096,VALID,0,VALID,96.7335,VALID,0,VALID,19.9968,VALID,119,VALID,0,
2013-05-08, 01:39:04,VALID,917.07,VALID,0,VALID,96.7335,VALID,0,VALID,19.9773,VALID,119,VALID,0,
2013-05-08, 01:40:04,VALID,917.067,VALID,0,VALID,96.764,VALID,0,VALID,19.9578,VALID,119,VALID,0,
2013-05-08, 01:41:04,VALID,917.055,VALID,0,VALID,96.7793,VALID,0,VALID,19.9173,VALID,119,VALID,0,
2013-05-08, 01:42:04,VALID,917.05,VALID,0,VALID,96.7793,VALID,0,VALID,19.9383,VALID,119,VALID,0,
2013-05-08, 01:43:04,VALID,917.056,VALID,0,VALID,96.7945,VALID,0,VALID,19.9383,VALID,119,VALID,0,
2013-05-08, 01:44:04,VALID,917.026,VALID,0,VALID,96.7945,VALID,0,VALID,19.9368,VALID,119,VALID,0,
2013-05-08, 01:45:04,VALID,917.006,VALID,0,VALID,96.8174,VALID,0,VALID,19.9383,VALID,119,VALID,0,
2013-05-08, 01:46:04,VALID,917.021,VALID,0,VALID,96.8479,VALID,0,VALID,19.9578,VALID,119,VALID,0,
2013-05-08, 01:47:04,VALID,916.982,VALID,0,VALID,96.8479,VALID,0,VALID,19.9773,VALID,119,VALID,0,
2013-05-08, 01:48:04,VALID,916.921,VALID,0,VALID,96.8555,VALID,0,VALID,19.9773,VALID,119,VALID,0,
2013-05-08, 01:49:04,VALID,916.901,VALID,0,VALID,96.8631,VALID,0,VALID,19.9563,VALID,119,VALID,0,
2013-05-08, 01:50:04,VALID,916.865,VALID,0,VALID,96.8784,VALID,0,VALID,19.9968,VALID,119,VALID,0,
2013-05-08, 01:51:04,VALID,916.829,VALID,0,VALID,96.9012,VALID,0,VALID,20.0163,VALID,119,VALID,0,
2013-05-08, 01:52:04,VALID,916.844,VALID,0,VALID,96.9012,VALID,0,VALID,20.0374,VALID,119,VALID,0,
2013-05-08, 01:53:04,VALID,916.804,VALID,0,VALID,96.9165,VALID,0,VALID,20.0163,VALID,119,VALID,0,
2013-05-08, 01:54:04,VALID,916.812,VALID,0,VALID,96.9241,VALID,0,VALID,20.0358,VALID,119,VALID,0,
2013-05-08, 01:55:04,VALID,916.796,VALID,0,VALID,96.9317,VALID,0,VALID,20.0163,VALID,119,VALID,0,
2013-05-08, 01:56:04,VALID,916.806,VALID,0,VALID,96.9241,VALID,0,VALID,20.0163,VALID,119,VALID,0,
2013-05-08, 01:57:04,VALID,916.789,VALID,0,VALID,96.9317,VALID,0,VALID,20.0358,VALID,119,VALID,0,
2013-05-08, 01:58:04,VALID,916.78,VALID,0,VALID,96.947,VALID,0,VALID,20.0358,VALID,119,VALID,0,
2013-05-08, 01:59:04,VALID,916.759,VALID,0,VALID,96.9394,VALID,0,VALID,20.0163,VALID,119,VALID,0,
2013-05-08, 02:00:04,VALID,916.732,VALID,0,VALID,96.9546,VALID,0,VALID,20.0163,VALID,120,VALID,0,
2013-05-08, 02:01:04,VALID,916.727,VALID,0,VALID,96.9622,VALID,0,VALID,20.0148,VALID,119,VALID,0,
2013-05-08, 02:02:04,VALID,916.695,VALID,0,VALID,96.9622,VALID,0,VALID,20.0163,VALID,119,VALID,0,
2013-05-08, 02:03:04,VALID,916.695,VALID,0,VALID,96.9546,VALID,0,VALID,20.0163,VALID,119,VALID,0,
2013-05-08, 02:04:04,VALID,916.708,VALID,0,VALID,96.9851,VALID,0,VALID,19.9953,VALID,120,VALID,0,
2013-05-08, 02:05:04,VALID,916.683,VALID,0,VALID,96.9622,VALID,0,VALID,20.0163,VALID,119,VALID,0,
2013-05-08, 02:06:04,VALID,916.69,VALID,0,VALID,96.9775,VALID,0,VALID,20.0148,VALID,119,VALID,0,
2013-05-08, 02:07:04,VALID,916.648,VALID,0,VALID,97.0156,VALID,0,VALID,20.0163,VALID,119,VALID,0,
2013-05-08, 02:08:04,VALID,916.655,VALID,0,VALID,96.9927,VALID,0,VALID,20.0179,VALID,119,VALID,0,
2013-05-08, 02:09:04,VALID,916.659,VALID,0,VALID,96.9851,VALID,0,VALID,19.9758,VALID,119,VALID,0,
2013-05-08, 02:10:04,VALID,916.635,VALID,0,VALID,96.9927,VALID,0,VALID,19.9968,VALID,120,VALID,0,
2013-05-08, 02:11:04,VALID,916.64,VALID,0,VALID,97.0232,VALID,0,VALID,19.9773,VALID,119,VALID,0,
2013-05-08, 02:12:04,VALID,916.645,VALID,0,VALID,97.0232,VALID,0,VALID,19.9968,VALID,119,VALID,0,
2013-05-08, 02:13:04,VALID,916.626,VALID,0,VALID,97.0232,VALID,0,VALID,19.9773,VALID,119,VALID,0,
2013-05-08, 02:14:04,VALID,916.645,VALID,0,VALID,97.0385,VALID,0,VALID,19.9773,VALID,120,VALID,0,
2013-05-08, 02:15:04,VALID,916.618,VALID,0,VALID,97.0308,VALID,0,VALID,19.9773,VALID,119,VALID,0,
2013-05-08, 02:16:04,VALID,916.606,VALID,0,VALID,97.0461,VALID,0,VALID,19.9968,VALID,119,VALID,0,
2013-05-08, 02:17:04,VALID,916.61,VALID,0,VALID,97.0308,VALID,0,VALID,20.0163,VALID,119,VALID,0,
2013-05-08, 02:18:04,VALID,916.592,VALID,0,VALID,97.069,VALID,0,VALID,20.0163,VALID,119,VALID,0,
2013-05-08, 02:19:04,VALID,916.578,VALID,0,VALID,97.0461,VALID,0,VALID,20.0358,VALID,119,VALID,0,
2013-05-08, 02:20:04,VALID,916.597,VALID,0,VALID,97.0766,VALID,0,VALID,20.0553,VALID,119,VALID,0,
2013-05-08, 02:21:04,VALID,916.617,VALID,0,VALID,97.0537,VALID,0,VALID,20.0553,VALID,119,VALID,0,
2013-05-08, 02:22:04,VALID,916.61,VALID,0,VALID,97.0613,VALID,0,VALID,20.0358,VALID,119,VALID,0,
2013-05-08, 02:23:04,VALID,916.599,VALID,0,VALID,97.0537,VALID,0,VALID,20.0374,VALID,119,VALID,0,
2013-05-08, 02:24:04,VALID,916.605,VALID,0,VALID,97.0613,VALID,0,VALID,20.0358,VALID,119,VALID,0,
2013-05-08, 02:25:04,VALID,916.607,VALID,0,VALID,97.0537,VALID,0,VALID,20.0358,VALID,119,VALID,0,
2013-05-08, 02:26:04,VALID,916.602,VALID,0,VALID,97.0613,VALID,0,VALID,20.0343,VALID,119,VALID,0,
2013-05-08, 02:27:04,VALID,916.604,VALID,0,VALID,97.0842,VALID,0,VALID,20.0343,VALID,119,VALID,0,
2013-05-08, 02:28:04,VALID,916.577,VALID,0,VALID,97.0766,VALID,0,VALID,20.0749,VALID,119,VALID,0,
2013-05-08, 02:29:04,VALID,916.582,VALID,0,VALID,97.069,VALID,0,VALID,20.0538,VALID,119,VALID,0,
2013-05-08, 02:30:04,VALID,916.58,VALID,0,VALID,97.0613,VALID,0,VALID,20.0343,VALID,119,VALID,0,
2013-05-08, 02:31:04,VALID,916.58,VALID,0,VALID,97.069,VALID,0,VALID,20.0343,VALID,120,VALID,0,
2013-05-08, 02:32:04,VALID,916.58,VALID,0,VALID,97.0766,VALID,0,VALID,20.0749,VALID,119,VALID,0,
2013-05-08, 02:33:04,VALID,916.57,VALID,0,VALID,97.069,VALID,0,VALID,20.0538,VALID,119,VALID,0,
2013-05-08, 02:34:04,VALID,916.589,VALID,0,VALID,97.069,VALID,0,VALID,20.0553,VALID,119,VALID,0,
2013-05-08, 02:35:04,VALID,916.634,VALID,0,VALID,97.069,VALID,0,VALID,20.0553,VALID,119,VALID,0,
2013-05-08, 02:36:04,VALID,916.605,VALID,0,VALID,97.0766,VALID,0,VALID,20.0749,VALID,120,VALID,0,
2013-05-08, 02:37:04,VALID,916.611,VALID,0,VALID,97.069,VALID,0,VALID,20.0944,VALID,119,VALID,0,
2013-05-08, 02:38:04,VALID,916.627,VALID,0,VALID,97.1071,VALID,0,VALID,20.0944,VALID,119,VALID,0,
2013-05-08, 02:39:04,VALID,916.605,VALID,0,VALID,97.0842,VALID,0,VALID,20.1334,VALID,119,VALID,0,
2013-05-08, 02:40:04,VALID,916.582,VALID,0,VALID,97.0766,VALID,0,VALID,20.1513,VALID,119,VALID,0,
2013-05-08, 02:41:04,VALID,916.624,VALID,0,VALID,97.0842,VALID,0,VALID,20.1724,VALID,119,VALID,0,
2013-05-08, 02:42:04,VALID,916.588,VALID,0,VALID,97.0842,VALID,0,VALID,20.1529,VALID,119,VALID,0,
2013-05-08, 02:43:04,VALID,916.565,VALID,0,VALID,97.1147,VALID,0,VALID,20.1318,VALID,120,VALID,0,
2013-05-08, 02:44:04,VALID,916.552,VALID,0,VALID,97.0918,VALID,0,VALID,20.1708,VALID,119,VALID,0,
2013-05-08, 02:45:04,VALID,916.503,VALID,0,VALID,97.1071,VALID,0,VALID,20.1513,VALID,119,VALID,0,
2013-05-08, 02:46:04,VALID,916.503,VALID,0,VALID,97.1071,VALID,0,VALID,20.1708,VALID,119,VALID,0,
2013-05-08, 02:47:04,VALID,916.477,VALID,0,VALID,97.1071,VALID,0,VALID,20.1919,VALID,119,VALID,0,
2013-05-08, 02:48:04,VALID,916.434,VALID,0,VALID,97.0842,VALID,0,VALID,20.1708,VALID,120,VALID,0,
2013-05-08, 02:49:04,VALID,916.48,VALID,0,VALID,97.0918,VALID,0,VALID,20.1513,VALID,119,VALID,0,
2013-05-08, 02:50:05,VALID,916.426,VALID,0,VALID,97.0994,VALID,0,VALID,20.1513,VALID,119,VALID,0,
2013-05-08, 02:51:05,VALID,916.42,VALID,0,VALID,97.1147,VALID,0,VALID,20.1919,VALID,119,VALID,0,
2013-05-08, 02:52:05,VALID,916.381,VALID,0,VALID,97.0918,VALID,0,VALID,20.1724,VALID,119,VALID,0,
2013-05-08, 02:53:05,VALID,916.391,VALID,0,VALID,97.1223,VALID,0,VALID,20.1513,VALID,119,VALID,0,
2013-05-08, 02:54:05,VALID,916.342,VALID,0,VALID,97.1071,VALID,0,VALID,20.1724,VALID,119,VALID,0,
2013-05-08, 02:55:05,VALID,916.307,VALID,0,VALID,97.1299,VALID,0,VALID,20.1529,VALID,119,VALID,0,
2013-05-08, 02:56:05,VALID,916.335,VALID,0,VALID,97.1071,VALID,0,VALID,20.1318,VALID,119,VALID,0,
2013-05-08, 02:57:05,VALID,916.311,VALID,0,VALID,97.1147,VALID,0,VALID,20.1724,VALID,119,VALID,0,
2013-05-08, 02:58:05,VALID,916.308,VALID,0,VALID,97.1223,VALID,0,VALID,20.1123,VALID,119,VALID,0,
2013-05-08, 02:59:05,VALID,916.305,VALID,0,VALID,97.1147,VALID,0,VALID,20.1334,VALID,119,VALID,0,
2013-05-08, 03:00:05,VALID,916.299,VALID,0,VALID,97.1071,VALID,0,VALID,20.0928,VALID,119,VALID,0,
2013-05-08, 03:01:05,VALID,916.286,VALID,0,VALID,97.1071,VALID,0,VALID,20.0944,VALID,119,VALID,0,
2013-05-08, 03:02:05,VALID,916.253,VALID,0,VALID,97.1071,VALID,0,VALID,20.0944,VALID,119,VALID,0,
2013-05-08, 03:03:05,VALID,916.244,VALID,0,VALID,97.1071,VALID,0,VALID,20.0749,VALID,119,VALID,0,
2013-05-08, 03:04:05,VALID,916.24,VALID,0,VALID,97.1147,VALID,0,VALID,20.0538,VALID,119,VALID,0,
2013-05-08, 03:05:05,VALID,916.227,VALID,0,VALID,97.1071,VALID,0,VALID,20.0944,VALID,119,VALID,0,
2013-05-08, 03:06:05,VALID,916.19,VALID,0,VALID,97.0994,VALID,0,VALID,20.0148,VALID,119,VALID,0,
2013-05-08, 03:07:05,VALID,916.163,VALID,0,VALID,97.0918,VALID,0,VALID,19.9758,VALID,6,VALID,0,
2013-05-08, 03:08:05,VALID,916.194,VALID,0,VALID,97.0613,VALID,0,VALID,19.9578,VALID,5,VALID,0,
2013-05-08, 03:09:05,VALID,916.184,VALID,0,VALID,97.069,VALID,0,VALID,19.9383,VALID,5,VALID,0,
2013-05-08, 03:10:05,VALID,916.194,VALID,0,VALID,97.0766,VALID,0,VALID,19.9383,VALID,4,VALID,0,
2013-05-08, 03:11:05,VALID,916.185,VALID,0,VALID,97.0461,VALID,0,VALID,19.9383,VALID,359,VALID,0,
2013-05-08, 03:12:05,VALID,916.169,VALID,0,VALID,97.069,VALID,0,VALID,19.8978,VALID,359,VALID,0,
2013-05-08, 03:13:05,VALID,916.152,VALID,0,VALID,97.0537,VALID,0,VALID,19.9173,VALID,359,VALID,0,
2013-05-08, 03:14:05,VALID,916.193,VALID,0,VALID,97.0842,VALID,0.107441,VALID,19.9368,VALID,359,VALID,0,
2013-05-08, 03:15:05,VALID,916.14,VALID,0,VALID,97.0766,VALID,0.107441,VALID,19.9368,VALID,359,VALID,0,
2013-05-08, 03:16:05,VALID,916.15,VALID,0,VALID,97.0842,VALID,0,VALID,19.9368,VALID,359,VALID,0,
2013-05-08, 03:17:05,VALID,916.13,VALID,0,VALID,97.069,VALID,0.107441,VALID,19.9368,VALID,359,VALID,0,
2013-05-08, 03:18:05,VALID,916.118,VALID,0,VALID,97.069,VALID,0.107441,VALID,19.9563,VALID,359,VALID,0,
2013-05-08, 03:19:05,VALID,916.098,VALID,0,VALID,97.0842,VALID,0.107441,VALID,19.9548,VALID,359,VALID,0,
2013-05-08, 03:20:05,VALID,916.096,VALID,0,VALID,97.0918,VALID,0,VALID,19.9548,VALID,359,VALID,0,
2013-05-08, 03:21:05,VALID,916.096,VALID,0,VALID,97.069,VALID,0,VALID,19.9548,VALID,359,VALID,0,
2013-05-08, 03:22:05,VALID,916.098,VALID,0,VALID,97.0994,VALID,0.107441,VALID,19.9563,VALID,359,VALID,0,
2013-05-08, 03:23:05,VALID,916.047,VALID,0,VALID,97.0994,VALID,0,VALID,19.9758,VALID,359,VALID,0,
2013-05-08, 03:24:05,VALID,916.034,VALID,0,VALID,97.1071,VALID,0.107441,VALID,19.9743,VALID,359,VALID,0,
2013-05-08, 03:25:05,VALID,916.043,VALID,0,VALID,97.1147,VALID,0.107441,VALID,19.9758,VALID,359,VALID,0,
2013-05-08, 03:26:05,VALID,915.976,VALID,0,VALID,97.0918,VALID,0.107441,VALID,19.9743,VALID,359,VALID,0,
2013-05-08, 03:27:05,VALID,916.029,VALID,0,VALID,97.1071,VALID,0.107441,VALID,19.9758,VALID,359,VALID,0,
2013-05-08, 03:28:05,VALID,915.993,VALID,0,VALID,97.0766,VALID,0.107441,VALID,19.9758,VALID,359,VALID,0,
2013-05-08, 03:29:05,VALID,916.013,VALID,0,VALID,97.1299,VALID,0,VALID,19.9383,VALID,359,VALID,0,
2013-05-08, 03:30:05,VALID,915.992,VALID,0,VALID,97.1071,VALID,0,VALID,19.9188,VALID,359,VALID,0,
2013-05-08, 03:31:05,VALID,916.006,VALID,0,VALID,97.1223,VALID,0,VALID,19.9188,VALID,359,VALID,0,
2013-05-08, 03:32:05,VALID,916,VALID,0,VALID,97.0994,VALID,0,VALID,19.9398,VALID,359,VALID,0,
2013-05-08, 03:33:05,VALID,916.001,VALID,0,VALID,97.1147,VALID,0,VALID,19.8393,VALID,359,VALID,0,
2013-05-08, 03:34:05,VALID,916,VALID,0,VALID,97.0918,VALID,0,VALID,19.8798,VALID,359,VALID,0,
2013-05-08, 03:35:05,VALID,915.991,VALID,0,VALID,97.0766,VALID,0,VALID,19.8813,VALID,359,VALID,0,
2013-05-08, 03:36:05,VALID,915.98,VALID,0,VALID,97.0994,VALID,0,VALID,19.8408,VALID,359,VALID,0,
2013-05-08, 03:37:05,VALID,915.996,VALID,0,VALID,97.0766,VALID,0,VALID,19.8213,VALID,359,VALID,0,
2013-05-08, 03:38:05,VALID,915.963,VALID,0,VALID,97.0766,VALID,0,VALID,19.8408,VALID,359,VALID,0,
2013-05-08, 03:39:05,VALID,915.98,VALID,0,VALID,97.0842,VALID,0,VALID,19.8213,VALID,359,VALID,0,
2013-05-08, 03:40:05,VALID,915.97,VALID,0,VALID,97.069,VALID,0,VALID,19.8213,VALID,359,VALID,0,
2013-05-08, 03:41:05,VALID,915.971,VALID,0,VALID,97.0766,VALID,0,VALID,19.8408,VALID,359,VALID,0,
2013-05-08, 03:42:05,VALID,915.981,VALID,0,VALID,97.0766,VALID,0,VALID,19.8408,VALID,359,VALID,0,
2013-05-08, 03:43:05,VALID,915.961,VALID,0,VALID,97.069,VALID,0,VALID,19.8393,VALID,359,VALID,0,
2013-05-08, 03:44:05,VALID,915.935,VALID,0,VALID,97.0766,VALID,0.107441,VALID,19.8588,VALID,359,VALID,0,
2013-05-08, 03:45:05,VALID,915.904,VALID,0,VALID,97.0918,VALID,0.107441,VALID,19.8783,VALID,359,VALID,0,
2013-05-08, 03:46:05,VALID,915.899,VALID,0,VALID,97.069,VALID,0.107441,VALID,19.8783,VALID,359,VALID,0,
2013-05-08, 03:47:05,VALID,915.877,VALID,0,VALID,97.0766,VALID,0.107441,VALID,19.8783,VALID,359,VALID,0,
2013-05-08, 03:48:05,VALID,915.846,VALID,0,VALID,97.0613,VALID,0.107441,VALID,19.8783,VALID,359,VALID,0,
2013-05-08, 03:49:05,VALID,915.877,VALID,0,VALID,97.0461,VALID,0.107441,VALID,19.8783,VALID,359,VALID,0,
2013-05-08, 03:50:05,VALID,915.86,VALID,0,VALID,97.0537,VALID,0.107441,VALID,19.8783,VALID,359,VALID,0,
2013-05-08, 03:51:05,VALID,915.812,VALID,0,VALID,97.0537,VALID,0.107441,VALID,19.8783,VALID,359,VALID,0,
2013-05-08, 03:52:05,VALID,915.807,VALID,0,VALID,97.069,VALID,0.107441,VALID,19.9188,VALID,359,VALID,0,
2013-05-08, 03:53:05,VALID,915.814,VALID,0,VALID,97.0766,VALID,0.107441,VALID,19.9173,VALID,359,VALID,0,
2013-05-08, 03:54:05,VALID,915.843,VALID,0,VALID,97.0613,VALID,0.107441,VALID,19.9173,VALID,359,VALID,0,
2013-05-08, 03:55:05,VALID,915.834,VALID,0,VALID,97.0766,VALID,0.107441,VALID,19.8963,VALID,359,VALID,0,
2013-05-08, 03:56:05,VALID,915.823,VALID,0,VALID,97.0537,VALID,0.107441,VALID,19.9173,VALID,1,VALID,0,
2013-05-08, 03:57:05,VALID,915.81,VALID,0,VALID,97.0613,VALID,0.107441,VALID,19.9173,VALID,1,VALID,0,
2013-05-08, 03:58:05,VALID,915.811,VALID,0,VALID,97.0613,VALID,0.107441,VALID,19.8558,VALID,1,VALID,0,